Location: LDNL
(36.4545°S, 141.6685°E)
Time: 12:37:27
(UTC+10:00)

Tiros 1 despin weight - Pass Details

Date: 11 August 2022
Orbit: 590 x 639 km, 48.2° (Epoch: 23 September)

Event Time Altitude Azimuth Distance (km) Brightness Sun altitude
Rises 02:34:35 0° 266° (W) 2,927 - -56.8°
Reaches altitude 10° 02:37:15 10° 252° (WSW) 2,030 - -56.3°
Maximum altitude 02:41:08 25° 196° (SSW) 1,301 - -55.6°
Drops below altitude 10° 02:45:03 10° 140° (SE) 2,051 - -54.9°
Sets 02:47:46 0° 126° (SE) 2,965 - -54.5°
